Time,TemperatureF,DewpointF,PressureIn,WindDirection,WindDirectionDegrees,WindSpeedMPH,WindSpeedGustMPH,Humidity,HourlyPrecipIn,Conditions,Clouds,dailyrainin,SoftwareType,DateUTC
2013-06-09 06:17:00,57.5,57.5,30.06,West,269,0.0,0.0,100,0.00,,,0.01,Wunderground v.1.15,2013-06-09 10:17:00,
2013-06-09 06:18:00,57.6,57.6,30.06,West,269,0.0,0.0,100,0.00,,,0.01,Wunderground v.1.15,2013-06-09 10:18:00,
2013-06-09 06:20:00,57.7,57.7,30.06,West,269,0.0,0.0,100,0.00,,,0.01,Wunderground v.1.15,2013-06-09 10:20:00,
2013-06-09 06:21:00,57.7,57.7,30.06,West,269,0.0,0.0,100,0.00,,,0.01,Wunderground v.1.15,2013-06-09 10:21:00,
2013-06-09 06:22:00,57.7,57.7,30.06,West,269,0.0,0.0,100,0.00,,,0.01,Wunderground v.1.15,2013-06-09 10:22:00,
2013-06-09 06:27:00,57.9,57.9,30.06,West,269,0.0,0.0,100,0.00,,,0.01,Wunderground v.1.15,2013-06-09 10:27:00,
2013-06-09 06:32:00,58.0,58.0,30.06,West,269,0.0,0.0,100,0.00,,,0.01,Wunderground v.1.15,2013-06-09 10:32:00,
2013-06-09 06:37:00,58.0,58.0,30.06,West,263,0.0,0.0,100,0.00,,,0.01,Wunderground v.1.15,2013-06-09 10:37:00,
2013-06-09 06:43:00,58.1,58.1,30.06,South,179,1.0,5.0,100,0.00,,,0.01,Wunderground v.1.15,2013-06-09 10:43:00,
2013-06-09 06:48:00,58.2,58.2,30.07,South,178,1.0,2.0,100,0.00,,,0.01,Wunderground v.1.15,2013-06-09 10:48:00,
2013-06-09 06:53:00,58.2,57.9,30.07,South,175,1.0,3.0,99,0.00,,,0.01,Wunderground v.1.15,2013-06-09 10:53:00,
2013-06-09 06:59:00,58.1,57.8,30.07,South,175,2.0,4.0,99,0.00,,,0.01,Wunderground v.1.15,2013-06-09 10:59:00,
2013-06-09 07:04:00,58.2,57.6,30.07,South,169,2.0,2.0,98,0.00,,,0.01,Wunderground v.1.15,2013-06-09 11:04:00,
2013-06-09 07:09:00,58.4,57.8,30.07,South,185,1.0,2.0,98,0.00,,,0.01,Wunderground v.1.15,2013-06-09 11:09:00,
2013-06-09 07:15:00,58.2,57.1,30.08,South,177,2.0,2.0,96,0.00,,,0.01,Wunderground v.1.15,2013-06-09 11:15:00,
2013-06-09 07:20:00,58.3,57.2,30.07,South,177,2.0,2.0,96,0.00,,,0.01,Wunderground v.1.15,2013-06-09 11:20:00,
2013-06-09 07:25:00,58.5,57.1,30.08,South,177,1.0,2.0,95,0.00,,,0.01,Wunderground v.1.15,2013-06-09 11:25:00,
2013-06-09 07:31:00,58.7,57.3,30.08,South,177,1.0,2.0,95,0.00,,,0.02,Wunderground v.1.15,2013-06-09 11:31:00,
2013-06-09 07:36:00,58.9,57.5,30.08,South,177,1.0,2.0,95,0.00,,,0.02,Wunderground v.1.15,2013-06-09 11:36:00,
2013-06-09 07:41:00,59.1,57.4,30.08,South,177,1.0,2.0,94,0.00,,,0.02,Wunderground v.1.15,2013-06-09 11:41:00,
2013-06-09 07:46:00,59.1,57.4,30.09,SSE,152,1.0,3.0,94,0.00,,,0.02,Wunderground v.1.15,2013-06-09 11:46:00,
2013-06-09 07:52:00,59.1,57.4,30.09,South,177,2.0,3.0,94,0.00,,,0.02,Wunderground v.1.15,2013-06-09 11:52:00,
2013-06-09 07:58:00,59.1,57.1,30.09,SSE,157,1.0,3.0,93,0.00,,,0.02,Wunderground v.1.15,2013-06-09 11:58:00,
2013-06-09 08:03:00,59.1,57.4,30.09,SSE,156,1.0,2.0,94,0.00,,,0.02,Wunderground v.1.15,2013-06-09 12:03:00,
2013-06-09 08:08:00,59.0,57.0,30.09,SSE,153,1.0,2.0,93,0.00,,,0.02,Wunderground v.1.15,2013-06-09 12:08:00,
2013-06-09 08:14:00,58.9,56.9,30.09,South,182,1.0,2.0,93,0.00,,,0.02,Wunderground v.1.15,2013-06-09 12:14:00,
2013-06-09 08:20:00,58.9,56.9,30.10,South,182,0.0,0.0,93,0.00,,,0.02,Wunderground v.1.15,2013-06-09 12:20:00,
2013-06-09 08:25:00,58.9,56.9,30.09,SSE,155,1.0,4.0,93,0.00,,,0.02,Wunderground v.1.15,2013-06-09 12:25:00,
2013-06-09 08:30:00,59.1,57.4,30.10,South,171,2.0,2.0,94,0.00,,,0.02,Wunderground v.1.15,2013-06-09 12:30:00,
2013-06-09 08:35:00,59.1,57.1,30.10,SSE,165,2.0,3.0,93,0.00,,,0.02,Wunderground v.1.15,2013-06-09 12:35:00,
2013-06-09 08:40:00,59.2,57.5,30.10,SSE,149,2.0,4.0,94,0.00,,,0.02,Wunderground v.1.15,2013-06-09 12:40:00,
2013-06-09 08:45:00,59.3,57.3,30.10,South,180,3.0,4.0,93,0.00,,,0.02,Wunderground v.1.15,2013-06-09 12:45:00,
2013-06-09 08:51:00,59.4,57.4,30.10,South,169,4.0,6.0,93,0.00,,,0.02,Wunderground v.1.15,2013-06-09 12:51:00,
2013-06-09 08:56:00,59.4,57.4,30.10,South,173,4.0,7.0,93,0.00,,,0.02,Wunderground v.1.15,2013-06-09 12:56:00,
2013-06-09 09:02:00,59.6,57.6,30.09,SSE,155,4.0,4.0,93,0.00,,,0.02,Wunderground v.1.15,2013-06-09 13:02:00,
2013-06-09 09:07:00,59.8,57.8,30.09,SSE,166,4.0,5.0,93,0.00,,,0.02,Wunderground v.1.15,2013-06-09 13:07:00,
2013-06-09 09:13:00,59.9,58.2,30.10,South,170,4.0,5.0,94,0.00,,,0.02,Wunderground v.1.15,2013-06-09 13:13:00,
2013-06-09 09:18:00,60.2,58.2,30.09,ESE,113,3.0,5.0,93,0.00,,,0.02,Wunderground v.1.15,2013-06-09 13:18:00,
2013-06-09 09:23:00,60.5,58.8,30.10,SE,134,2.0,4.0,94,0.00,,,0.02,Wunderground v.1.15,2013-06-09 13:23:00,
2013-06-09 09:29:00,61.0,59.3,30.10,South,183,1.0,4.0,94,0.00,,,0.02,Wunderground v.1.15,2013-06-09 13:29:00,
2013-06-09 09:35:00,61.2,58.9,30.09,SSW,199,1.0,3.0,92,0.00,,,0.02,Wunderground v.1.15,2013-06-09 13:35:00,
2013-06-09 09:40:00,61.3,59.0,30.09,South,169,2.0,3.0,92,0.00,,,0.02,Wunderground v.1.15,2013-06-09 13:40:00,
2013-06-09 09:45:00,61.5,59.2,30.09,SSE,150,3.0,5.0,92,0.00,,,0.02,Wunderground v.1.15,2013-06-09 13:45:00,
2013-06-09 09:50:00,61.8,59.5,30.09,South,182,3.0,3.0,92,0.00,,,0.02,Wunderground v.1.15,2013-06-09 13:50:00,
2013-06-09 09:56:00,62.2,59.2,30.09,SSE,167,2.0,4.0,90,0.00,,,0.02,Wunderground v.1.15,2013-06-09 13:56:00,
2013-06-09 10:01:00,62.4,59.4,30.09,SE,143,2.0,3.0,90,0.00,,,0.02,Wunderground v.1.15,2013-06-09 14:01:00,
2013-06-09 10:06:00,62.7,59.7,30.09,SSE,168,2.0,4.0,90,0.00,,,0.02,Wunderground v.1.15,2013-06-09 14:06:00,
2013-06-09 10:12:00,63.4,60.4,30.09,South,176,2.0,2.0,90,0.00,,,0.02,Wunderground v.1.15,2013-06-09 14:12:00,
2013-06-09 10:17:00,64.2,60.2,30.09,SSW,196,2.0,5.0,87,0.00,,,0.02,Wunderground v.1.15,2013-06-09 14:17:00,
2013-06-09 10:22:00,64.2,59.9,30.09,West,262,3.0,6.0,86,0.00,,,0.02,Wunderground v.1.15,2013-06-09 14:22:00,
2013-06-09 10:28:00,64.7,61.1,30.09,WSW,241,3.0,6.0,88,0.00,,,0.02,Wunderground v.1.15,2013-06-09 14:28:00,
2013-06-09 10:33:00,65.1,61.1,30.09,SE,134,3.0,5.0,87,0.00,,,0.02,Wunderground v.1.15,2013-06-09 14:33:00,
2013-06-09 10:38:00,65.9,61.6,30.08,South,176,3.0,5.0,86,0.00,,,0.02,Wunderground v.1.15,2013-06-09 14:38:00,
2013-06-09 10:43:00,66.1,61.1,30.09,SSW,207,3.0,6.0,84,0.00,,,0.02,Wunderground v.1.15,2013-06-09 14:43:00,
2013-06-09 10:48:00,66.4,61.4,30.09,SSW,202,3.0,6.0,84,0.00,,,0.02,Wunderground v.1.15,2013-06-09 14:48:00,
2013-06-09 10:53:00,66.7,61.0,30.09,South,186,2.0,6.0,82,0.00,,,0.02,Wunderground v.1.15,2013-06-09 14:53:00,
2013-06-09 10:58:00,66.7,61.0,30.09,South,184,3.0,6.0,82,0.00,,,0.02,Wunderground v.1.15,2013-06-09 14:58:00,
2013-06-09 11:04:00,66.6,60.9,30.09,SSE,164,5.0,6.0,82,0.00,,,0.02,Wunderground v.1.15,2013-06-09 15:04:00,
2013-06-09 11:09:00,66.6,60.9,30.09,SSW,198,4.0,6.0,82,0.00,,,0.02,Wunderground v.1.15,2013-06-09 15:09:00,
2013-06-09 11:14:00,66.7,60.3,30.08,SSW,197,3.0,4.0,80,0.00,,,0.02,Wunderground v.1.15,2013-06-09 15:14:00,
2013-06-09 11:19:00,66.8,61.1,30.08,South,189,3.0,7.0,82,0.00,,,0.02,Wunderground v.1.15,2013-06-09 15:19:00,
2013-06-09 11:24:00,67.0,60.6,30.08,SSE,163,3.0,5.0,80,0.00,,,0.02,Wunderground v.1.15,2013-06-09 15:24:00,
2013-06-09 11:30:00,67.6,61.6,30.08,SSE,159,2.0,2.0,81,0.00,,,0.02,Wunderground v.1.15,2013-06-09 15:30:00,
2013-06-09 11:36:00,68.1,61.7,30.08,SSE,160,2.0,5.0,80,0.00,,,0.02,Wunderground v.1.15,2013-06-09 15:36:00,
2013-06-09 11:41:00,68.7,61.6,30.08,SSW,202,2.0,4.0,78,0.00,,,0.02,Wunderground v.1.15,2013-06-09 15:41:00,
2013-06-09 11:46:00,68.5,61.4,30.08,South,171,2.0,6.0,78,0.00,,,0.03,Wunderground v.1.15,2013-06-09 15:46:00,
2013-06-09 11:52:00,67.9,60.1,30.08,SW,222,3.0,3.0,76,0.00,,,0.03,Wunderground v.1.15,2013-06-09 15:52:00,
2013-06-09 11:57:00,67.6,60.1,30.08,South,186,3.0,3.0,77,0.00,,,0.03,Wunderground v.1.15,2013-06-09 15:57:00,
2013-06-09 12:02:00,68.0,61.2,30.08,SSW,194,3.0,5.0,79,0.00,,,0.03,Wunderground v.1.15,2013-06-09 16:02:00,
2013-06-09 12:08:00,68.4,60.5,30.08,SSE,167,4.0,6.0,76,0.00,,,0.03,Wunderground v.1.15,2013-06-09 16:08:00,
2013-06-09 12:13:00,68.8,61.3,30.08,SSW,207,4.0,6.0,77,0.00,,,0.03,Wunderground v.1.15,2013-06-09 16:13:00,
2013-06-09 12:18:00,69.2,61.7,30.07,SSW,205,3.0,7.0,77,0.00,,,0.03,Wunderground v.1.15,2013-06-09 16:18:00,
2013-06-09 12:23:00,69.4,61.5,30.07,SSE,163,4.0,6.0,76,0.00,,,0.03,Wunderground v.1.15,2013-06-09 16:23:00,
2013-06-09 12:28:00,69.5,61.2,30.07,SW,228,5.0,6.0,75,0.00,,,0.03,Wunderground v.1.15,2013-06-09 16:28:00,
2013-06-09 12:33:00,69.4,61.1,30.07,South,184,3.0,4.0,75,0.00,,,0.03,Wunderground v.1.15,2013-06-09 16:33:00,
2013-06-09 12:39:00,69.2,60.9,30.07,South,169,2.0,6.0,75,0.00,,,0.03,Wunderground v.1.15,2013-06-09 16:39:00,
2013-06-09 12:44:00,69.2,60.6,30.07,SW,223,3.0,5.0,74,0.00,,,0.03,Wunderground v.1.15,2013-06-09 16:44:00,
2013-06-09 12:49:00,69.8,62.3,30.07,South,185,3.0,6.0,77,0.00,,,0.03,Wunderground v.1.15,2013-06-09 16:49:00,
2013-06-09 12:55:00,70.0,61.3,30.07,SSE,168,3.0,6.0,74,0.00,,,0.03,Wunderground v.1.15,2013-06-09 16:55:00,
2013-06-09 13:00:00,70.1,60.3,30.06,SSW,195,3.0,3.0,71,0.00,,,0.03,Wunderground v.1.15,2013-06-09 17:00:00,
2013-06-09 13:05:00,70.1,61.4,30.06,ENE,67,4.0,7.0,74,0.00,,,0.03,Wunderground v.1.15,2013-06-09 17:05:00,
2013-06-09 13:10:00,69.6,62.1,30.07,SE,134,5.0,5.0,77,0.00,,,0.03,Wunderground v.1.15,2013-06-09 17:10:00,
2013-06-09 13:16:00,69.5,61.6,30.06,SSE,157,5.0,6.0,76,0.00,,,0.03,Wunderground v.1.15,2013-06-09 17:16:00,
2013-06-09 13:21:00,68.9,61.8,30.06,South,182,6.0,7.0,78,0.00,,,0.03,Wunderground v.1.15,2013-06-09 17:21:00,
2013-06-09 13:26:00,68.8,61.7,30.06,SE,136,5.0,9.0,78,0.00,,,0.03,Wunderground v.1.15,2013-06-09 17:26:00,
2013-06-09 13:31:00,68.6,61.8,30.06,SE,124,5.0,6.0,79,0.00,,,0.03,Wunderground v.1.15,2013-06-09 17:31:00,
2013-06-09 13:36:00,68.5,60.6,30.06,SSE,165,6.0,7.0,76,0.00,,,0.03,Wunderground v.1.15,2013-06-09 17:36:00,
2013-06-09 13:41:00,68.7,61.2,30.06,South,184,5.0,9.0,77,0.00,,,0.03,Wunderground v.1.15,2013-06-09 17:41:00,
2013-06-09 13:47:00,69.0,61.9,30.06,SSE,156,5.0,9.0,78,0.00,,,0.03,Wunderground v.1.15,2013-06-09 17:47:00,
2013-06-09 13:52:00,69.3,61.0,30.06,SSW,201,4.0,5.0,75,0.00,,,0.03,Wunderground v.1.15,2013-06-09 17:52:00,
2013-06-09 13:57:00,69.2,61.3,30.06,SE,145,4.0,7.0,76,0.00,,,0.03,Wunderground v.1.15,2013-06-09 17:57:00,
2013-06-09 14:02:00,69.0,61.5,30.06,SSE,166,5.0,8.0,77,0.00,,,0.03,Wunderground v.1.15,2013-06-09 18:02:00,
2013-06-09 14:07:00,69.4,61.5,30.06,South,178,4.0,8.0,76,0.00,,,0.03,Wunderground v.1.15,2013-06-09 18:07:00,
2013-06-09 14:12:00,70.1,61.4,30.05,SW,215,3.0,8.0,74,0.00,,,0.03,Wunderground v.1.15,2013-06-09 18:12:00,
2013-06-09 14:18:00,70.3,61.6,30.05,South,175,4.0,8.0,74,0.00,,,0.03,Wunderground v.1.15,2013-06-09 18:18:00,
2013-06-09 14:23:00,69.9,60.8,30.05,South,174,4.0,5.0,73,0.00,,,0.03,Wunderground v.1.15,2013-06-09 18:23:00,
2013-06-09 14:28:00,69.1,61.2,30.06,SW,217,3.0,6.0,76,0.00,,,0.03,Wunderground v.1.15,2013-06-09 18:28:00,
2013-06-09 14:33:00,69.0,60.7,30.06,South,182,3.0,5.0,75,0.00,,,0.03,Wunderground v.1.15,2013-06-09 18:33:00,
2013-06-09 14:39:00,69.1,60.8,30.06,SSW,209,3.0,5.0,75,0.00,,,0.03,Wunderground v.1.15,2013-06-09 18:39:00,
2013-06-09 14:44:00,69.3,60.7,30.06,SSW,202,4.0,5.0,74,0.00,,,0.03,Wunderground v.1.15,2013-06-09 18:44:00,
2013-06-09 14:50:00,68.9,61.4,30.06,SSW,204,4.0,5.0,77,0.00,,,0.03,Wunderground v.1.15,2013-06-09 18:50:00,
2013-06-09 14:55:00,69.2,61.3,30.06,South,178,3.0,5.0,76,0.00,,,0.03,Wunderground v.1.15,2013-06-09 18:55:00,
2013-06-09 15:01:00,69.5,60.8,30.06,SSW,198,4.0,4.0,74,0.00,,,0.03,Wunderground v.1.15,2013-06-09 19:01:00,
2013-06-09 15:06:00,70.2,60.7,30.06,SW,234,4.0,5.0,72,0.00,,,0.03,Wunderground v.1.15,2013-06-09 19:06:00,
2013-06-09 15:11:00,69.8,60.0,30.05,SSW,202,4.0,4.0,71,0.00,,,0.03,Wunderground v.1.15,2013-06-09 19:11:00,
2013-06-09 15:16:00,69.9,61.2,30.06,SSW,203,4.0,5.0,74,0.00,,,0.03,Wunderground v.1.15,2013-06-09 19:16:00,
2013-06-09 15:22:00,69.7,59.5,30.06,SSE,166,4.0,5.0,70,0.00,,,0.03,Wunderground v.1.15,2013-06-09 19:22:00,
2013-06-09 15:27:00,69.1,60.5,30.06,SW,221,5.0,5.0,74,0.00,,,0.03,Wunderground v.1.15,2013-06-09 19:27:00,
2013-06-09 15:32:00,69.5,60.8,30.06,SSW,205,3.0,5.0,74,0.00,,,0.03,Wunderground v.1.15,2013-06-09 19:32:00,
2013-06-09 15:37:00,69.3,61.0,30.06,SW,219,3.0,6.0,75,0.00,,,0.03,Wunderground v.1.15,2013-06-09 19:37:00,
2013-06-09 15:42:00,69.3,61.0,30.06,SSW,198,2.0,3.0,75,0.00,,,0.03,Wunderground v.1.15,2013-06-09 19:42:00,
2013-06-09 15:47:00,68.8,60.6,30.06,SSW,194,3.0,4.0,75,0.00,,,0.03,Wunderground v.1.15,2013-06-09 19:47:00,
2013-06-09 15:53:00,68.4,59.8,30.06,SSE,167,3.0,6.0,74,0.00,,,0.03,Wunderground v.1.15,2013-06-09 19:53:00,
2013-06-09 15:58:00,68.5,60.3,30.06,SSE,153,3.0,6.0,75,0.00,,,0.03,Wunderground v.1.15,2013-06-09 19:58:00,
2013-06-09 16:03:00,68.8,59.8,30.06,South,184,3.0,3.0,73,0.00,,,0.03,Wunderground v.1.15,2013-06-09 20:03:00,
2013-06-09 16:08:00,68.8,60.6,30.06,South,185,2.0,3.0,75,0.00,,,0.03,Wunderground v.1.15,2013-06-09 20:08:00,
2013-06-09 16:13:00,69.2,61.3,30.06,South,180,2.0,3.0,76,0.00,,,0.03,Wunderground v.1.15,2013-06-09 20:13:00,
2013-06-09 16:19:00,69.2,60.6,30.06,SW,236,2.0,4.0,74,0.00,,,0.03,Wunderground v.1.15,2013-06-09 20:19:00,
2013-06-09 16:24:00,69.8,60.8,30.06,SW,234,2.0,3.0,73,0.00,,,0.03,Wunderground v.1.15,2013-06-09 20:24:00,
2013-06-09 16:29:00,70.4,61.7,30.06,SW,227,1.0,4.0,74,0.00,,,0.03,Wunderground v.1.15,2013-06-09 20:29:00,
2013-06-09 16:35:00,70.6,61.5,30.06,SW,219,2.0,7.0,73,0.00,,,0.03,Wunderground v.1.15,2013-06-09 20:35:00,
2013-06-09 16:40:00,70.2,60.7,30.06,SW,218,2.0,7.0,72,0.00,,,0.03,Wunderground v.1.15,2013-06-09 20:40:00,
2013-06-09 16:45:00,69.9,60.1,30.06,South,185,4.0,7.0,71,0.00,,,0.03,Wunderground v.1.15,2013-06-09 20:45:00,
2013-06-09 16:51:00,69.7,60.3,30.06,SSW,213,4.0,5.0,72,0.00,,,0.03,Wunderground v.1.15,2013-06-09 20:51:00,
2013-06-09 16:56:00,69.7,60.3,30.06,SSW,204,4.0,5.0,72,0.00,,,0.04,Wunderground v.1.15,2013-06-09 20:56:00,
2013-06-09 17:02:00,69.0,59.6,30.06,SSW,213,3.0,7.0,72,0.00,,,0.04,Wunderground v.1.15,2013-06-09 21:02:00,
2013-06-09 17:07:00,68.4,59.8,30.06,SSW,194,3.0,7.0,74,0.00,,,0.04,Wunderground v.1.15,2013-06-09 21:07:00,
2013-06-09 17:13:00,68.5,59.9,30.06,SSW,204,3.0,6.0,74,0.00,,,0.04,Wunderground v.1.15,2013-06-09 21:13:00,
2013-06-09 17:18:00,68.4,60.5,30.06,SW,234,4.0,6.0,76,0.00,,,0.04,Wunderground v.1.15,2013-06-09 21:18:00,
2013-06-09 17:23:00,68.8,60.6,30.06,South,177,3.0,4.0,75,0.00,,,0.04,Wunderground v.1.15,2013-06-09 21:23:00,
2013-06-09 17:28:00,68.6,60.0,30.06,South,178,3.0,4.0,74,0.00,,,0.04,Wunderground v.1.15,2013-06-09 21:28:00,
2013-06-09 17:34:00,68.5,59.9,30.06,South,177,3.0,4.0,74,0.00,,,0.04,Wunderground v.1.15,2013-06-09 21:34:00,
2013-06-09 17:39:00,68.5,60.3,30.06,South,169,3.0,4.0,75,0.00,,,0.04,Wunderground v.1.15,2013-06-09 21:39:00,
2013-06-09 17:44:00,68.5,59.9,30.06,South,178,3.0,5.0,74,0.00,,,0.04,Wunderground v.1.15,2013-06-09 21:44:00,
2013-06-09 17:49:00,68.7,60.5,30.06,South,184,2.0,5.0,75,0.00,,,0.04,Wunderground v.1.15,2013-06-09 21:49:00,
2013-06-09 17:54:00,69.2,60.9,30.06,SSW,202,1.0,2.0,75,0.00,,,0.04,Wunderground v.1.15,2013-06-09 21:54:00,
2013-06-09 18:00:00,69.4,61.1,30.06,SW,214,1.0,1.0,75,0.00,,,0.04,Wunderground v.1.15,2013-06-09 22:00:00,
2013-06-09 18:05:00,69.2,60.2,30.06,SW,221,1.0,4.0,73,0.00,,,0.04,Wunderground v.1.15,2013-06-09 22:05:00,
2013-06-09 18:11:00,68.7,60.8,30.06,SSW,196,1.0,2.0,76,0.00,,,0.04,Wunderground v.1.15,2013-06-09 22:11:00,
2013-06-09 18:16:00,68.8,60.9,30.06,South,171,1.0,3.0,76,0.00,,,0.04,Wunderground v.1.15,2013-06-09 22:16:00,
2013-06-09 18:22:00,68.9,60.6,30.06,South,191,2.0,3.0,75,0.00,,,0.04,Wunderground v.1.15,2013-06-09 22:22:00,
2013-06-09 18:27:00,68.9,61.0,30.06,SSW,207,2.0,4.0,76,0.00,,,0.04,Wunderground v.1.15,2013-06-09 22:27:00,
2013-06-09 18:32:00,68.9,60.6,30.06,SSW,203,2.0,2.0,75,0.00,,,0.04,Wunderground v.1.15,2013-06-09 22:32:00,
2013-06-09 18:37:00,68.9,60.6,30.06,South,169,1.0,3.0,75,0.00,,,0.04,Wunderground v.1.15,2013-06-09 22:37:00,
2013-06-09 18:43:00,68.8,60.9,30.07,SSW,192,2.0,2.0,76,0.00,,,0.04,Wunderground v.1.15,2013-06-09 22:43:00,
2013-06-09 18:48:00,68.6,60.7,30.07,WSW,242,1.0,2.0,76,0.00,,,0.04,Wunderground v.1.15,2013-06-09 22:48:00,
2013-06-09 18:53:00,68.6,60.7,30.07,SW,235,0.0,2.0,76,0.00,,,0.04,Wunderground v.1.15,2013-06-09 22:53:00,
2013-06-09 18:58:00,68.4,60.5,30.07,South,180,1.0,2.0,76,0.00,,,0.04,Wunderground v.1.15,2013-06-09 22:58:00,
2013-06-09 19:03:00,68.3,60.4,30.07,SSW,197,1.0,2.0,76,0.00,,,0.04,Wunderground v.1.15,2013-06-09 23:03:00,
2013-06-09 19:09:00,68.0,60.5,30.06,South,172,2.0,2.0,77,0.00,,,0.04,Wunderground v.1.15,2013-06-09 23:09:00,
2013-06-09 19:14:00,67.9,60.8,30.07,South,176,2.0,3.0,78,0.00,,,0.04,Wunderground v.1.15,2013-06-09 23:14:00,
2013-06-09 19:20:00,67.8,60.7,30.07,South,178,1.0,1.0,78,0.00,,,0.04,Wunderground v.1.15,2013-06-09 23:20:00,
2013-06-09 19:25:00,67.6,60.5,30.07,South,178,0.0,2.0,78,0.00,,,0.04,Wunderground v.1.15,2013-06-09 23:25:00,
2013-06-09 19:30:00,66.9,59.8,30.07,South,178,1.0,1.0,78,0.00,,,0.04,Wunderground v.1.15,2013-06-09 23:30:00,
2013-06-09 19:36:00,66.1,59.7,30.07,South,175,1.0,3.0,80,0.00,,,0.04,Wunderground v.1.15,2013-06-09 23:36:00,
2013-06-09 19:41:00,65.7,59.7,30.07,South,175,1.0,1.0,81,0.00,,,0.04,Wunderground v.1.15,2013-06-09 23:41:00,
2013-06-09 19:47:00,65.4,59.4,30.07,South,175,0.0,1.0,81,0.00,,,0.04,Wunderground v.1.15,2013-06-09 23:47:00,
2013-06-09 19:52:00,65.1,59.5,30.07,South,175,0.0,0.0,82,0.00,,,0.04,Wunderground v.1.15,2013-06-09 23:52:00,
2013-06-09 19:57:00,64.9,59.6,30.08,South,175,0.0,0.0,83,0.00,,,0.04,Wunderground v.1.15,2013-06-09 23:57:00,
2013-06-09 20:02:00,64.6,59.7,30.08,South,175,0.0,0.0,84,0.00,,,0.04,Wunderground v.1.15,2013-06-10 00:02:00,
2013-06-09 20:07:00,64.0,59.7,30.08,South,175,0.0,0.0,86,0.00,,,0.04,Wunderground v.1.15,2013-06-10 00:07:00,
2013-06-09 20:12:00,63.5,59.6,30.08,South,175,0.0,0.0,87,0.00,,,0.04,Wunderground v.1.15,2013-06-10 00:12:00,
2013-06-09 20:18:00,63.1,59.5,30.08,South,175,0.0,0.0,88,0.00,,,0.04,Wunderground v.1.15,2013-06-10 00:18:00,
2013-06-09 20:23:00,62.6,59.3,30.08,South,175,0.0,0.0,89,0.00,,,0.04,Wunderground v.1.15,2013-06-10 00:23:00,
2013-06-09 20:29:00,62.2,58.9,30.08,South,175,0.0,0.0,89,0.00,,,0.04,Wunderground v.1.15,2013-06-10 00:29:00,
2013-06-09 20:34:00,61.8,58.5,30.08,South,175,0.0,0.0,89,0.00,,,0.04,Wunderground v.1.15,2013-06-10 00:34:00,
2013-06-09 20:40:00,61.0,58.0,30.08,South,175,0.0,0.0,90,0.00,,,0.04,Wunderground v.1.15,2013-06-10 00:40:00,
2013-06-09 20:45:00,60.7,57.7,30.09,South,175,0.0,0.0,90,0.00,,,0.04,Wunderground v.1.15,2013-06-10 00:45:00,
2013-06-09 20:50:00,60.4,57.5,30.09,South,175,0.0,0.0,90,0.00,,,0.04,Wunderground v.1.15,2013-06-10 00:50:00,
2013-06-09 20:56:00,60.2,57.6,30.09,South,175,0.0,0.0,91,0.00,,,0.04,Wunderground v.1.15,2013-06-10 00:56:00,
2013-06-09 21:01:00,60.0,57.4,30.09,South,175,0.0,0.0,91,0.00,,,0.04,Wunderground v.1.15,2013-06-10 01:01:00,
2013-06-09 21:06:00,59.8,57.5,30.09,South,175,0.0,0.0,92,0.00,,,0.04,Wunderground v.1.15,2013-06-10 01:06:00,
2013-06-09 21:12:00,59.6,57.3,30.10,South,175,0.0,0.0,92,0.00,,,0.04,Wunderground v.1.15,2013-06-10 01:12:00,
2013-06-09 21:17:00,59.2,57.2,30.10,South,175,0.0,0.0,93,0.00,,,0.04,Wunderground v.1.15,2013-06-10 01:17:00,
2013-06-09 21:22:00,59.0,57.3,30.10,South,175,0.0,0.0,94,0.00,,,0.04,Wunderground v.1.15,2013-06-10 01:22:00,
2013-06-09 21:27:00,58.9,57.2,30.11,South,175,0.0,0.0,94,0.00,,,0.04,Wunderground v.1.15,2013-06-10 01:27:00,
2013-06-09 21:32:00,58.7,57.0,30.11,South,175,0.0,0.0,94,0.00,,,0.04,Wunderground v.1.15,2013-06-10 01:32:00,
2013-06-09 21:38:00,58.3,56.6,30.11,South,175,0.0,0.0,94,0.00,,,0.04,Wunderground v.1.15,2013-06-10 01:38:00,